| time (UTC) | temp F | wind direction | speed MPH | gust MPH | rain 1hr in | rain 24hr in | rain mn in | humidity % | barometer mb |
| 20260503211506 | 52 | 263 | 6.0 | 10.0 | 0.00 | 0.00 | 0.00 | 48 | 956.5 |
| 20260503210006 | 51 | 255 | 8.0 | 13.0 | 0.00 | 0.00 | 0.00 | 49 | 956.4 |
| 20260503204505 | 53 | 254 | 5.0 | 9.0 | 0.00 | 0.00 | 0.00 | 44 | 956.4 |
| 20260503203013 | 53 | 241 | 4.0 | 8.0 | 0.00 | 0.00 | 0.00 | 44 | 956.4 |
| 20260503201504 | 53 | 250 | 5.0 | 9.0 | 0.00 | 0.00 | 0.00 | 42 | 956.2 |
| 20260503200003 | 53 | 257 | 7.0 | 10.0 | 0.00 | 0.00 | 0.00 | 39 | 956.3 |
| 20260503194502 | 54 | 242 | 3.0 | 7.0 | 0.00 | 0.00 | 0.00 | 38 | 956.5 |
| 20260503193111 | 53 | 260 | 3.0 | 6.0 | 0.00 | 0.00 | 0.00 | 41 | 956.7 |
| 20260503191608 | 53 | 243 | 4.0 | 12.0 | 0.00 | 0.00 | 0.00 | 39 | 956.7 |
| 20260503184608 | 53 | 253 | 6.0 | 11.0 | 0.00 | 0.00 | 0.00 | 37 | 957.0 |
| 20260503183108 | 54 | 266 | 4.0 | 9.0 | 0.00 | 0.00 | 0.00 | 38 | 957.3 |
| 20260503181607 | 53 | 235 | 6.0 | 11.0 | 0.00 | 0.00 | 0.00 | 35 | 957.4 |
| 20260503180052 | 54 | 240 | 3.0 | 8.0 | 0.00 | 0.00 | 0.00 | 38 | 957.5 |
| 20260503174548 | 51 | 246 | 5.0 | 12.0 | 0.00 | 0.00 | 0.00 | 37 | 957.5 |
| 20260503173057 | 52 | 250 | 3.0 | 11.0 | 0.00 | 0.00 | 0.00 | 41 | 957.9 |
| 20260503171546 | 52 | 255 | 7.0 | 11.0 | 0.00 | 0.00 | 0.00 | 38 | 958.0 |
| 20260503160138 | 49 | 257 | 6.0 | 12.0 | 0.00 | 0.00 | 0.00 | 40 | 958.4 |
| 20260503081529 | 35 | 259 | 2.0 | 3.0 | 0.00 | 0.01 | 0.00 | 82 | 958.0 |
| 20260503071521 | 34 | 259 | 1.0 | 3.0 | 0.00 | 0.01 | 0.00 | 82 | 957.9 |
| 20260503054514 | 35 | 272 | 0.0 | 1.0 | 0.00 | 0.01 | 0.00 | 80 | 958.6 |
| 20260503053008 | 35 | 272 | 0.0 | 2.0 | 0.00 | 0.01 | 0.00 | 80 | 958.6 |
| 20260503051507 | 35 | 272 | 1.0 | 2.0 | 0.00 | 0.01 | 0.00 | 79 | 958.9 |
| 20260503050015 | 35 | 272 | 1.0 | 3.0 | 0.00 | 0.01 | 0.00 | 79 | 959.1 |
| 20260503044500 | 36 | 272 | 0.0 | 2.0 | 0.00 | 0.01 | 0.00 | 78 | 959.2 |
| 20260503043107 | 36 | 272 | 1.0 | 2.0 | 0.00 | 0.01 | 0.00 | 77 | 959.2 |
| 20260503041557 | 36 | 272 | 0.0 | 2.0 | 0.00 | 0.01 | 0.00 | 77 | 959.3 |
| 20260503040054 | 36 | 272 | 1.0 | 2.0 | 0.00 | 0.01 | 0.00 | 77 | 959.4 |
| 20260503034554 | 37 | 272 | 1.0 | 3.0 | 0.00 | 0.03 | 0.01 | 77 | 959.4 |
| 20260503033114 | 37 | 272 | 0.0 | 2.0 | 0.00 | 0.03 | 0.01 | 77 | 959.3 |
| 20260503031557 | 37 | 272 | 0.0 | 2.0 | 0.00 | 0.03 | 0.01 | 76 | 959.3 |
| 20260503024610 | 37 | 272 | 0.0 | 1.0 | 0.00 | 0.05 | 0.01 | 75 | 959.4 |
| 20260503023049 | 38 | 271 | 1.0 | 2.0 | 0.00 | 0.05 | 0.01 | 74 | 959.5 |
| 20260503021555 | 38 | 271 | 1.0 | 2.0 | 0.00 | 0.05 | 0.01 | 74 | 959.6 |
| 20260503020050 | 38 | 271 | 1.0 | 3.0 | 0.00 | 0.05 | 0.01 | 73 | 959.5 |
| 20260503014547 | 38 | 278 | 1.0 | 4.0 | 0.00 | 0.07 | 0.01 | 72 | 959.4 |
| 20260503013048 | 39 | 271 | 1.0 | 3.0 | 0.00 | 0.07 | 0.01 | 70 | 959.5 |
| 20260503011549 | 39 | 271 | 1.0 | 3.0 | 0.00 | 0.07 | 0.01 | 69 | 959.3 |
| 20260503010046 | 39 | 271 | 0.0 | 3.0 | 0.00 | 0.07 | 0.01 | 68 | 959.2 |
| 20260503004547 | 39 | 271 | 1.0 | 3.0 | 0.00 | 0.10 | 0.01 | 68 | 959.0 |
| 20260503003045 | 40 | 274 | 0.0 | 3.0 | 0.00 | 0.10 | 0.01 | 67 | 958.9 |
| 20260503001557 | 40 | 278 | 1.0 | 3.0 | 0.00 | 0.10 | 0.01 | 66 | 958.9 |
| 20260503000053 | 41 | 270 | 1.0 | 3.0 | 0.00 | 0.10 | 0.01 | 63 | 958.9 |
| 20260502234543 | 41 | 269 | 2.0 | 4.0 | 0.00 | 0.15 | 0.01 | 63 | 958.8 |
| 20260502233059 | 42 | 250 | 0.0 | 2.0 | 0.00 | 0.15 | 0.01 | 65 | 958.7 |
| 20260502231559 | 42 | 248 | 2.0 | 4.0 | 0.00 | 0.15 | 0.01 | 60 | 958.6 |
| 20260502230042 | 43 | 248 | 2.0 | 3.0 | 0.00 | 0.15 | 0.01 | 61 | 958.6 |
| 20260502224541 | 43 | 248 | 2.0 | 3.0 | 0.00 | 0.15 | 0.01 | 61 | 958.5 |
| 20260502223047 | 43 | 259 | 2.0 | 4.0 | 0.00 | 0.15 | 0.01 | 61 | 958.5 |
| 20260502221550 | 43 | 261 | 2.0 | 4.0 | 0.00 | 0.15 | 0.01 | 61 | 958.6 |
| 20260502220043 | 44 | 270 | 2.0 | 4.0 | 0.00 | 0.15 | 0.01 | 59 | 958.4 |
| 20260502214540 | 44 | 269 | 1.0 | 4.0 | 0.00 | 0.15 | 0.01 | 58 | 958.4 |
| 20260502213139 | 45 | 257 | 3.0 | 6.0 | 0.00 | 0.15 | 0.01 | 57 | 958.4 |